Time,TemperatureF,DewpointF,PressureIn,WindDirection,WindDirectionDegrees,WindSpeedMPH,WindSpeedGustMPH,Humidity,HourlyPrecipIn,Conditions,Clouds,dailyrainin,SoftwareType,DateUTC
2013-07-02 00:01:00,65.8,62.8,30.06,South,169,0.0,0.0,90,0.00,,,0.37,Wunderground v.1.13,2013-07-02 04:01:00,
2013-07-02 00:02:00,65.9,62.9,30.06,South,169,0.0,0.0,90,0.00,,,0.37,Wunderground v.1.13,2013-07-02 04:02:00,
2013-07-02 00:04:00,65.9,62.9,30.06,South,169,0.0,0.0,90,0.00,,,0.37,Wunderground v.1.13,2013-07-02 04:04:00,
2013-07-02 00:05:00,65.9,62.9,30.06,South,169,0.0,0.0,90,0.00,,,0.37,Wunderground v.1.13,2013-07-02 04:05:00,
2013-07-02 00:08:00,65.9,62.9,30.06,South,169,0.0,0.0,90,0.00,,,0.37,Wunderground v.1.13,2013-07-02 04:08:00,
2013-07-02 00:13:00,66.0,63.0,30.06,South,169,0.0,0.0,90,0.00,,,0.37,Wunderground v.1.13,2013-07-02 04:13:00,
2013-07-02 00:18:00,66.2,63.5,30.06,South,169,0.0,0.0,91,0.00,,,0.37,Wunderground v.1.13,2013-07-02 04:18:00,
2013-07-02 00:23:00,66.2,63.5,30.06,South,169,0.0,0.0,91,0.00,,,0.37,Wunderground v.1.13,2013-07-02 04:23:00,
2013-07-02 00:28:00,66.3,63.6,30.06,South,169,0.0,0.0,91,0.00,,,0.37,Wunderground v.1.13,2013-07-02 04:28:00,
2013-07-02 00:33:00,66.3,63.3,30.06,South,169,0.0,0.0,90,0.00,,,0.37,Wunderground v.1.13,2013-07-02 04:33:00,
2013-07-02 00:38:00,66.3,63.6,30.06,South,169,0.0,0.0,91,0.00,,,0.37,Wunderground v.1.13,2013-07-02 04:38:00,
2013-07-02 00:43:00,66.2,63.5,30.06,South,169,0.0,0.0,91,0.00,,,0.37,Wunderground v.1.13,2013-07-02 04:43:00,
2013-07-02 00:48:00,66.1,63.4,30.06,South,169,0.0,0.0,91,0.00,,,0.37,Wunderground v.1.13,2013-07-02 04:48:00,
2013-07-02 00:53:00,66.0,63.3,30.06,South,169,0.0,0.0,91,0.00,,,0.37,Wunderground v.1.13,2013-07-02 04:53:00,
2013-07-02 00:58:00,65.9,63.2,30.06,South,169,0.0,0.0,91,0.00,,,0.37,Wunderground v.1.13,2013-07-02 04:58:00,
2013-07-02 01:03:00,65.9,63.2,30.06,South,169,0.0,0.0,91,0.00,,,0.37,Wunderground v.1.13,2013-07-02 05:03:00,
2013-07-02 01:08:00,65.9,63.5,30.06,South,169,0.0,0.0,92,0.00,,,0.37,Wunderground v.1.13,2013-07-02 05:08:00,
2013-07-02 01:13:00,65.9,63.5,30.06,South,169,0.0,0.0,92,0.00,,,0.37,Wunderground v.1.13,2013-07-02 05:13:00,
2013-07-02 01:18:00,66.0,63.6,30.07,South,169,0.0,0.0,92,0.00,,,0.00,Wunderground v.1.13,2013-07-02 05:18:00,
2013-07-02 01:24:00,66.1,63.7,30.07,South,169,0.0,0.0,92,0.00,,,0.00,Wunderground v.1.13,2013-07-02 05:24:00,
2013-07-02 01:30:00,66.1,63.7,30.06,South,169,0.0,0.0,92,0.00,,,0.00,Wunderground v.1.13,2013-07-02 05:30:00,
2013-07-02 01:35:00,66.1,63.7,30.07,South,169,0.0,0.0,92,0.00,,,0.00,Wunderground v.1.13,2013-07-02 05:35:00,
2013-07-02 01:40:00,66.1,63.7,30.07,South,169,0.0,0.0,92,0.00,,,0.00,Wunderground v.1.13,2013-07-02 05:40:00,
2013-07-02 01:45:00,66.1,64.0,30.06,South,169,0.0,0.0,93,0.00,,,0.00,Wunderground v.1.13,2013-07-02 05:45:00,
2013-07-02 01:51:00,66.1,64.0,30.06,South,169,0.0,0.0,93,0.00,,,0.00,Wunderground v.1.13,2013-07-02 05:51:00,
2013-07-02 01:56:00,66.1,64.0,30.06,South,169,0.0,0.0,93,0.00,,,0.01,Wunderground v.1.13,2013-07-02 05:56:00,
2013-07-02 02:01:00,66.1,64.3,30.06,South,169,0.0,0.0,94,0.00,,,0.01,Wunderground v.1.13,2013-07-02 06:01:00,
2013-07-02 02:06:00,66.0,63.9,30.06,WNW,293,0.0,0.0,93,0.00,,,0.01,Wunderground v.1.13,2013-07-02 06:06:00,
2013-07-02 02:11:00,66.0,63.9,30.06,WNW,290,0.0,0.0,93,0.00,,,0.01,Wunderground v.1.13,2013-07-02 06:11:00,
2013-07-02 02:16:00,66.1,64.0,30.06,WNW,290,0.0,1.0,93,0.00,,,0.01,Wunderground v.1.13,2013-07-02 06:16:00,
2013-07-02 02:21:00,66.1,64.0,30.06,WNW,290,0.0,0.0,93,0.00,,,0.01,Wunderground v.1.13,2013-07-02 06:21:00,
2013-07-02 02:26:00,66.2,64.1,30.05,WNW,290,0.0,0.0,93,0.00,,,0.02,Wunderground v.1.13,2013-07-02 06:26:00,
2013-07-02 02:31:00,66.3,64.5,30.06,WNW,290,0.0,0.0,94,0.00,,,0.02,Wunderground v.1.13,2013-07-02 06:31:00,
2013-07-02 02:36:00,66.1,64.3,30.06,WNW,290,0.0,0.0,94,0.07,,,0.03,Wunderground v.1.13,2013-07-02 06:36:00,
2013-07-02 02:41:00,66.0,64.5,30.06,WNW,290,0.0,0.0,95,0.12,,,0.04,Wunderground v.1.13,2013-07-02 06:41:00,
2013-07-02 02:46:00,65.9,64.4,30.06,WNW,290,0.0,0.0,95,0.06,,,0.04,Wunderground v.1.13,2013-07-02 06:46:00,
2013-07-02 02:51:00,65.8,64.3,30.06,WNW,290,0.0,0.0,95,0.04,,,0.05,Wunderground v.1.13,2013-07-02 06:51:00,
2013-07-02 02:56:00,65.7,64.5,30.06,WNW,290,0.0,0.0,96,0.18,,,0.06,Wunderground v.1.13,2013-07-02 06:56:00,
2013-07-02 03:01:00,65.7,64.5,30.07,WNW,283,0.0,0.0,96,0.07,,,0.06,Wunderground v.1.13,2013-07-02 07:01:00,
2013-07-02 03:06:00,65.7,64.5,30.07,West,274,0.0,0.0,96,0.04,,,0.06,Wunderground v.1.13,2013-07-02 07:06:00,
2013-07-02 03:11:00,65.5,64.3,30.06,West,265,0.0,0.0,96,0.00,,,0.06,Wunderground v.1.13,2013-07-02 07:11:00,
2013-07-02 03:16:00,65.5,64.3,30.07,West,265,0.0,0.0,96,0.00,,,0.06,Wunderground v.1.13,2013-07-02 07:16:00,
2013-07-02 03:21:00,65.5,64.6,30.06,West,265,0.0,0.0,97,0.00,,,0.06,Wunderground v.1.13,2013-07-02 07:21:00,
2013-07-02 03:26:00,65.4,64.5,30.06,West,265,0.0,1.0,97,0.00,,,0.06,Wunderground v.1.13,2013-07-02 07:26:00,
2013-07-02 03:31:00,65.4,64.5,30.06,West,265,0.0,0.0,97,0.00,,,0.06,Wunderground v.1.13,2013-07-02 07:31:00,
2013-07-02 03:36:00,65.4,64.5,30.06,West,265,0.0,0.0,97,0.00,,,0.06,Wunderground v.1.13,2013-07-02 07:36:00,
2013-07-02 03:41:00,65.4,64.5,30.07,West,265,0.0,0.0,97,0.00,,,0.06,Wunderground v.1.13,2013-07-02 07:41:00,
2013-07-02 03:46:00,65.4,64.5,30.07,West,265,0.0,0.0,97,0.00,,,0.06,Wunderground v.1.13,2013-07-02 07:46:00,
2013-07-02 03:51:00,65.4,64.5,30.07,West,265,0.0,0.0,97,0.00,,,0.06,Wunderground v.1.13,2013-07-02 07:51:00,
2013-07-02 03:57:00,65.4,64.5,30.07,West,265,0.0,0.0,97,0.00,,,0.06,Wunderground v.1.13,2013-07-02 07:57:00,
2013-07-02 04:02:00,65.4,64.5,30.07,West,265,0.0,0.0,97,0.00,,,0.06,Wunderground v.1.13,2013-07-02 08:02:00,
2013-07-02 04:07:00,65.4,64.5,30.07,West,265,0.0,0.0,97,0.00,,,0.06,Wunderground v.1.13,2013-07-02 08:07:00,
2013-07-02 04:12:00,65.3,64.4,30.06,West,265,0.0,0.0,97,0.00,,,0.06,Wunderground v.1.13,2013-07-02 08:12:00,
2013-07-02 04:17:00,65.3,64.4,30.07,West,265,0.0,0.0,97,0.00,,,0.06,Wunderground v.1.13,2013-07-02 08:17:00,
2013-07-02 04:22:00,65.2,64.3,30.07,West,265,0.0,0.0,97,0.00,,,0.06,Wunderground v.1.13,2013-07-02 08:22:00,
2013-07-02 04:27:00,65.1,64.2,30.07,West,265,0.0,0.0,97,0.00,,,0.06,Wunderground v.1.13,2013-07-02 08:27:00,
2013-07-02 04:32:00,65.1,64.2,30.07,West,265,0.0,0.0,97,0.00,,,0.06,Wunderground v.1.13,2013-07-02 08:32:00,
2013-07-02 04:37:00,65.1,64.2,30.07,West,265,0.0,0.0,97,0.00,,,0.06,Wunderground v.1.13,2013-07-02 08:37:00,
2013-07-02 04:42:00,65.1,64.2,30.07,West,265,0.0,0.0,97,0.00,,,0.06,Wunderground v.1.13,2013-07-02 08:42:00,
2013-07-02 04:47:00,65.0,64.1,30.07,West,265,0.0,0.0,97,0.00,,,0.06,Wunderground v.1.13,2013-07-02 08:47:00,
2013-07-02 04:52:00,65.0,64.1,30.07,West,265,0.0,0.0,97,0.00,,,0.06,Wunderground v.1.13,2013-07-02 08:52:00,
2013-07-02 04:57:00,64.9,64.0,30.07,West,265,0.0,1.0,97,0.00,,,0.06,Wunderground v.1.13,2013-07-02 08:57:00,
2013-07-02 05:02:00,64.9,64.0,30.07,West,265,0.0,0.0,97,0.00,,,0.06,Wunderground v.1.13,2013-07-02 09:02:00,
2013-07-02 05:07:00,64.9,64.0,30.07,West,265,0.0,0.0,97,0.00,,,0.06,Wunderground v.1.13,2013-07-02 09:07:00,
2013-07-02 05:13:00,64.9,64.0,30.07,West,265,0.0,0.0,97,0.00,,,0.06,Wunderground v.1.13,2013-07-02 09:13:00,
2013-07-02 05:18:00,64.9,64.0,30.07,West,265,0.0,0.0,97,0.00,,,0.06,Wunderground v.1.13,2013-07-02 09:18:00,
2013-07-02 05:23:00,64.9,64.0,30.08,West,265,0.0,0.0,97,0.00,,,0.06,Wunderground v.1.13,2013-07-02 09:23:00,
2013-07-02 05:28:00,64.9,64.0,30.08,West,265,0.0,0.0,97,0.00,,,0.06,Wunderground v.1.13,2013-07-02 09:28:00,
2013-07-02 05:33:00,64.9,64.0,30.08,West,265,0.0,0.0,97,0.00,,,0.06,Wunderground v.1.13,2013-07-02 09:33:00,
2013-07-02 05:38:00,64.9,64.0,30.08,West,265,0.0,0.0,97,0.00,,,0.06,Wunderground v.1.13,2013-07-02 09:38:00,
2013-07-02 05:43:00,65.0,64.1,30.08,West,265,0.0,0.0,97,0.00,,,0.06,Wunderground v.1.13,2013-07-02 09:43:00,
2013-07-02 05:48:00,65.0,64.1,30.09,West,265,0.0,0.0,97,0.00,,,0.06,Wunderground v.1.13,2013-07-02 09:48:00,
2013-07-02 05:53:00,64.9,64.0,30.08,West,265,0.0,0.0,97,0.00,,,0.06,Wunderground v.1.13,2013-07-02 09:53:00,
2013-07-02 05:58:00,64.9,64.0,30.09,West,265,0.0,0.0,97,0.00,,,0.06,Wunderground v.1.13,2013-07-02 09:58:00,
2013-07-02 06:03:00,64.9,64.0,30.09,West,265,0.0,0.0,97,0.00,,,0.06,Wunderground v.1.13,2013-07-02 10:03:00,
2013-07-02 06:08:00,65.0,64.4,30.09,West,265,0.0,0.0,98,0.00,,,0.06,Wunderground v.1.13,2013-07-02 10:08:00,
2013-07-02 06:13:00,65.0,64.4,30.09,West,265,0.0,0.0,98,0.00,,,0.06,Wunderground v.1.13,2013-07-02 10:13:00,
2013-07-02 06:18:00,65.1,64.5,30.09,West,265,0.0,0.0,98,0.00,,,0.06,Wunderground v.1.13,2013-07-02 10:18:00,
2013-07-02 06:23:00,65.1,64.5,30.10,West,265,0.0,0.0,98,0.00,,,0.06,Wunderground v.1.13,2013-07-02 10:23:00,
2013-07-02 06:28:00,65.1,64.5,30.10,West,265,0.0,0.0,98,0.00,,,0.06,Wunderground v.1.13,2013-07-02 10:28:00,
2013-07-02 06:33:00,65.0,64.4,30.10,West,265,0.0,0.0,98,0.00,,,0.06,Wunderground v.1.13,2013-07-02 10:33:00,
2013-07-02 06:38:00,64.9,64.3,30.10,West,265,0.0,0.0,98,0.00,,,0.06,Wunderground v.1.13,2013-07-02 10:38:00,
2013-07-02 06:43:00,65.0,64.4,30.10,West,265,0.0,1.0,98,0.00,,,0.06,Wunderground v.1.13,2013-07-02 10:43:00,
2013-07-02 06:48:00,65.0,64.4,30.10,West,265,0.0,1.0,98,0.00,,,0.06,Wunderground v.1.13,2013-07-02 10:48:00,
2013-07-02 06:53:00,65.0,64.4,30.11,West,265,0.0,1.0,98,0.00,,,0.06,Wunderground v.1.13,2013-07-02 10:53:00,
2013-07-02 06:58:00,65.1,64.5,30.10,West,265,0.0,0.0,98,0.00,,,0.06,Wunderground v.1.13,2013-07-02 10:58:00,
2013-07-02 07:04:00,65.1,64.5,30.11,West,265,0.0,1.0,98,0.00,,,0.06,Wunderground v.1.13,2013-07-02 11:04:00,
2013-07-02 07:09:00,65.1,64.5,30.11,West,265,0.0,1.0,98,0.00,,,0.06,Wunderground v.1.13,2013-07-02 11:09:00,
2013-07-02 07:14:00,65.2,64.6,30.11,West,265,0.0,0.0,98,0.00,,,0.06,Wunderground v.1.13,2013-07-02 11:14:00,
2013-07-02 07:19:00,65.2,64.6,30.11,West,265,0.0,0.0,98,0.00,,,0.06,Wunderground v.1.13,2013-07-02 11:19:00,
2013-07-02 07:24:00,65.4,64.8,30.11,West,265,0.0,0.0,98,0.00,,,0.06,Wunderground v.1.13,2013-07-02 11:24:00,
2013-07-02 07:29:00,65.4,64.8,30.12,West,265,0.0,0.0,98,0.00,,,0.06,Wunderground v.1.13,2013-07-02 11:29:00,
2013-07-02 07:34:00,65.6,65.0,30.12,West,265,0.0,1.0,98,0.00,,,0.06,Wunderground v.1.13,2013-07-02 11:34:00,
2013-07-02 07:39:00,65.7,65.1,30.12,West,265,0.0,0.0,98,0.00,,,0.06,Wunderground v.1.13,2013-07-02 11:39:00,
2013-07-02 07:44:00,65.8,65.2,30.12,West,265,0.0,0.0,98,0.00,,,0.06,Wunderground v.1.13,2013-07-02 11:44:00,
2013-07-02 07:49:00,65.8,65.2,30.12,West,265,0.0,0.0,98,0.00,,,0.06,Wunderground v.1.13,2013-07-02 11:49:00,
2013-07-02 07:54:00,65.9,65.3,30.12,West,265,0.0,0.0,98,0.00,,,0.06,Wunderground v.1.13,2013-07-02 11:54:00,
2013-07-02 07:59:00,65.9,65.3,30.13,West,265,0.0,0.0,98,0.00,,,0.06,Wunderground v.1.13,2013-07-02 11:59:00,
2013-07-02 08:04:00,65.9,65.3,30.13,West,265,0.0,0.0,98,0.00,,,0.06,Wunderground v.1.13,2013-07-02 12:04:00,
2013-07-02 08:09:00,66.0,65.4,30.13,West,265,0.0,0.0,98,0.00,,,0.06,Wunderground v.1.13,2013-07-02 12:09:00,
2013-07-02 08:14:00,66.1,65.5,30.13,West,265,0.0,0.0,98,0.00,,,0.06,Wunderground v.1.13,2013-07-02 12:14:00,
2013-07-02 08:19:00,66.2,65.6,30.13,West,265,0.0,0.0,98,0.00,,,0.06,Wunderground v.1.13,2013-07-02 12:19:00,
2013-07-02 08:24:00,66.2,65.6,30.13,West,265,0.0,0.0,98,0.00,,,0.06,Wunderground v.1.13,2013-07-02 12:24:00,
2013-07-02 08:29:00,66.1,65.5,30.13,West,265,0.0,0.0,98,0.00,,,0.06,Wunderground v.1.13,2013-07-02 12:29:00,
2013-07-02 08:34:00,66.1,65.2,30.13,West,265,0.0,0.0,97,0.00,,,0.06,Wunderground v.1.13,2013-07-02 12:34:00,
2013-07-02 08:39:00,66.2,65.3,30.13,West,265,0.0,0.0,97,0.00,,,0.06,Wunderground v.1.13,2013-07-02 12:39:00,
2013-07-02 08:44:00,66.3,65.4,30.14,West,265,0.0,0.0,97,0.00,,,0.06,Wunderground v.1.13,2013-07-02 12:44:00,
2013-07-02 08:49:00,66.4,65.5,30.13,West,265,0.0,0.0,97,0.00,,,0.06,Wunderground v.1.13,2013-07-02 12:49:00,
2013-07-02 08:54:00,66.5,65.6,30.13,West,265,0.0,0.0,97,0.00,,,0.06,Wunderground v.1.13,2013-07-02 12:54:00,
2013-07-02 08:59:00,66.5,65.6,30.13,West,265,0.0,0.0,97,0.00,,,0.06,Wunderground v.1.13,2013-07-02 12:59:00,
2013-07-02 09:04:00,66.7,65.8,30.13,West,265,0.0,0.0,97,0.00,,,0.06,Wunderground v.1.13,2013-07-02 13:04:00,
2013-07-02 09:10:00,66.9,66.0,30.13,West,265,0.0,0.0,97,0.00,,,0.06,Wunderground v.1.13,2013-07-02 13:10:00,
2013-07-02 09:15:00,67.2,66.3,30.14,West,265,0.0,0.0,97,0.00,,,0.06,Wunderground v.1.13,2013-07-02 13:15:00,
2013-07-02 09:20:00,67.4,66.5,30.14,West,265,0.0,0.0,97,0.00,,,0.06,Wunderground v.1.13,2013-07-02 13:20:00,
2013-07-02 09:25:00,67.7,66.5,30.14,West,265,0.0,0.0,96,0.00,,,0.06,Wunderground v.1.13,2013-07-02 13:25:00,
2013-07-02 09:30:00,68.0,66.8,30.14,West,264,0.0,0.0,96,0.00,,,0.06,Wunderground v.1.13,2013-07-02 13:30:00,
2013-07-02 09:35:00,68.2,67.0,30.14,West,263,0.0,0.0,96,0.00,,,0.06,Wunderground v.1.13,2013-07-02 13:35:00,
2013-07-02 09:40:00,68.5,67.3,30.15,West,263,0.0,0.0,96,0.00,,,0.06,Wunderground v.1.13,2013-07-02 13:40:00,
2013-07-02 09:45:00,68.7,67.2,30.15,West,263,0.0,0.0,95,0.00,,,0.06,Wunderground v.1.13,2013-07-02 13:45:00,
2013-07-02 09:50:00,68.8,67.3,30.14,West,263,0.0,0.0,95,0.00,,,0.06,Wunderground v.1.13,2013-07-02 13:50:00,
2013-07-02 09:55:00,68.9,67.1,30.14,West,261,0.0,0.0,94,0.00,,,0.06,Wunderground v.1.13,2013-07-02 13:55:00,
2013-07-02 10:00:00,69.1,67.3,30.14,West,261,0.0,0.0,94,0.00,,,0.06,Wunderground v.1.13,2013-07-02 14:00:00,
2013-07-02 10:05:00,69.3,67.5,30.15,West,261,0.0,0.0,94,0.00,,,0.06,Wunderground v.1.13,2013-07-02 14:05:00,
2013-07-02 10:10:00,69.6,67.8,30.15,West,261,0.0,0.0,94,0.00,,,0.06,Wunderground v.1.13,2013-07-02 14:10:00,
2013-07-02 10:15:00,69.8,67.7,30.15,West,261,0.0,0.0,93,0.00,,,0.06,Wunderground v.1.13,2013-07-02 14:15:00,
2013-07-02 10:20:00,69.9,67.5,30.15,West,261,0.0,0.0,92,0.00,,,0.06,Wunderground v.1.13,2013-07-02 14:20:00,
2013-07-02 10:25:00,70.0,67.3,30.15,West,261,0.0,0.0,91,0.00,,,0.06,Wunderground v.1.13,2013-07-02 14:25:00,
2013-07-02 10:30:00,70.1,67.7,30.15,West,261,0.0,0.0,92,0.00,,,0.06,Wunderground v.1.13,2013-07-02 14:30:00,
2013-07-02 10:35:00,70.4,67.6,30.15,West,260,0.0,0.0,91,0.00,,,0.06,Wunderground v.1.13,2013-07-02 14:35:00,
2013-07-02 10:40:00,70.5,67.4,30.15,WSW,257,0.0,0.0,90,0.00,,,0.06,Wunderground v.1.13,2013-07-02 14:40:00,
2013-07-02 10:45:00,70.7,67.3,30.15,SSW,196,4.0,6.0,89,0.00,,,0.06,Wunderground v.1.13,2013-07-02 14:45:00,
2013-07-02 10:50:00,70.9,67.8,30.15,South,175,0.0,0.0,90,0.00,,,0.06,Wunderground v.1.13,2013-07-02 14:50:00,
2013-07-02 10:55:00,71.1,67.7,30.15,South,175,0.0,2.0,89,0.00,,,0.06,Wunderground v.1.13,2013-07-02 14:55:00,
2013-07-02 11:00:00,71.4,68.0,30.15,SSW,206,0.0,0.0,89,0.00,,,0.06,Wunderground v.1.13,2013-07-02 15:00:00,
2013-07-02 11:05:00,72.0,68.9,30.15,SSW,206,0.0,0.0,90,0.00,,,0.06,Wunderground v.1.13,2013-07-02 15:05:00,
2013-07-02 11:10:00,72.4,68.3,30.15,South,184,0.0,1.0,87,0.00,,,0.06,Wunderground v.1.13,2013-07-02 15:10:00,
2013-07-02 11:15:00,72.8,68.4,30.15,South,185,0.0,0.0,86,0.00,,,0.06,Wunderground v.1.13,2013-07-02 15:15:00,
2013-07-02 11:20:00,72.9,67.8,30.15,SSW,192,0.0,2.0,84,0.00,,,0.06,Wunderground v.1.13,2013-07-02 15:20:00,
2013-07-02 11:25:00,73.0,67.9,30.15,SSW,194,0.0,1.0,84,0.00,,,0.06,Wunderground v.1.13,2013-07-02 15:25:00,
2013-07-02 11:30:00,73.3,68.2,30.15,South,180,0.0,1.0,84,0.00,,,0.06,Wunderground v.1.13,2013-07-02 15:30:00,
2013-07-02 11:35:00,73.8,68.3,30.14,WSW,254,0.0,0.0,83,0.00,,,0.06,Wunderground v.1.13,2013-07-02 15:35:00,
2013-07-02 11:40:00,74.4,69.2,30.14,SW,227,1.0,1.0,84,0.00,,,0.06,Wunderground v.1.13,2013-07-02 15:40:00,
2013-07-02 11:45:00,74.8,68.6,30.15,South,178,0.0,1.0,81,0.00,,,0.06,Wunderground v.1.13,2013-07-02 15:45:00,
2013-07-02 11:50:00,75.2,68.6,30.14,SSW,196,3.0,3.0,80,0.00,,,0.06,Wunderground v.1.13,2013-07-02 15:50:00,
2013-07-02 11:55:00,75.1,68.1,30.14,SE,127,0.0,1.0,79,0.00,,,0.06,Wunderground v.1.13,2013-07-02 15:55:00,
2013-07-02 12:00:00,75.5,68.5,30.14,NW,309,0.0,0.0,79,0.00,,,0.06,Wunderground v.1.13,2013-07-02 16:00:00,
2013-07-02 12:06:00,76.0,68.6,30.14,South,173,0.0,2.0,78,0.00,,,0.06,Wunderground v.1.13,2013-07-02 16:06:00,
2013-07-02 12:11:00,76.3,69.3,30.14,South,173,0.0,0.0,79,0.00,,,0.06,Wunderground v.1.13,2013-07-02 16:11:00,
2013-07-02 12:16:00,76.3,68.6,30.14,SSE,157,0.0,1.0,77,0.00,,,0.06,Wunderground v.1.13,2013-07-02 16:16:00,
2013-07-02 12:21:00,76.5,68.0,30.14,SSE,161,0.0,1.0,75,0.00,,,0.06,Wunderground v.1.13,2013-07-02 16:21:00,
2013-07-02 12:26:00,76.4,68.3,30.14,South,170,1.0,1.0,76,0.00,,,0.06,Wunderground v.1.13,2013-07-02 16:26:00,
2013-07-02 12:31:00,76.3,67.8,30.14,WSW,246,0.0,1.0,75,0.00,,,0.06,Wunderground v.1.13,2013-07-02 16:31:00,
2013-07-02 12:36:00,76.6,69.2,30.14,SSW,194,0.0,2.0,78,0.00,,,0.06,Wunderground v.1.13,2013-07-02 16:36:00,
2013-07-02 12:41:00,77.3,69.9,30.14,SSW,194,0.0,0.0,78,0.00,,,0.06,Wunderground v.1.13,2013-07-02 16:41:00,
2013-07-02 12:46:00,77.8,68.4,30.14,SW,228,0.0,0.0,73,0.00,,,0.06,Wunderground v.1.13,2013-07-02 16:46:00,
2013-07-02 12:51:00,77.9,68.1,30.14,South,186,1.0,1.0,72,0.00,,,0.06,Wunderground v.1.13,2013-07-02 16:51:00,
2013-07-02 12:56:00,78.3,68.9,30.14,SSW,194,0.0,1.0,73,0.00,,,0.06,Wunderground v.1.13,2013-07-02 16:56:00,
2013-07-02 13:01:00,78.8,69.0,30.14,SE,136,2.0,2.0,72,0.00,,,0.06,Wunderground v.1.13,2013-07-02 17:01:00,
2013-07-02 13:06:00,78.9,68.7,30.14,SSE,157,1.0,1.0,71,0.00,,,0.06,Wunderground v.1.13,2013-07-02 17:06:00,
2013-07-02 13:11:00,79.0,67.5,30.14,West,268,0.0,0.0,68,0.00,,,0.06,Wunderground v.1.13,2013-07-02 17:11:00,
2013-07-02 13:16:00,79.2,69.0,30.13,West,271,0.0,1.0,71,0.00,,,0.06,Wunderground v.1.13,2013-07-02 17:16:00,
2013-07-02 13:21:00,79.0,66.2,30.13,South,179,0.0,2.0,65,0.00,,,0.06,Wunderground v.1.13,2013-07-02 17:21:00,
2013-07-02 13:26:00,79.1,67.2,30.14,South,180,0.0,2.0,67,0.00,,,0.06,Wunderground v.1.13,2013-07-02 17:26:00,
2013-07-02 13:31:00,79.5,66.3,30.14,South,171,0.0,2.0,64,0.00,,,0.06,Wunderground v.1.13,2013-07-02 17:31:00,
2013-07-02 13:36:00,79.3,66.5,30.14,SSW,192,2.0,2.0,65,0.00,,,0.06,Wunderground v.1.13,2013-07-02 17:36:00,
2013-07-02 13:41:00,79.4,67.0,30.14,South,185,0.0,2.0,66,0.00,,,0.06,Wunderground v.1.13,2013-07-02 17:41:00,
2013-07-02 13:46:00,79.7,66.0,30.14,South,181,0.0,2.0,63,0.00,,,0.06,Wunderground v.1.13,2013-07-02 17:46:00,
2013-07-02 13:51:00,79.7,67.3,30.14,South,182,0.0,0.0,66,0.00,,,0.06,Wunderground v.1.13,2013-07-02 17:51:00,
2013-07-02 13:56:00,80.0,67.2,30.14,South,175,0.0,1.0,65,0.00,,,0.06,Wunderground v.1.13,2013-07-02 17:56:00,
2013-07-02 14:01:00,80.1,65.9,30.14,South,185,0.0,3.0,62,0.00,,,0.06,Wunderground v.1.13,2013-07-02 18:01:00,
2013-07-02 14:06:00,80.1,66.8,30.14,WNW,284,0.0,1.0,64,0.00,,,0.06,Wunderground v.1.13,2013-07-02 18:06:00,
2013-07-02 14:11:00,79.8,66.5,30.15,South,186,0.0,1.0,64,0.00,,,0.06,Wunderground v.1.13,2013-07-02 18:11:00,
2013-07-02 14:16:00,79.5,65.8,30.14,South,188,0.0,1.0,63,0.00,,,0.06,Wunderground v.1.13,2013-07-02 18:16:00,
2013-07-02 14:21:00,79.5,66.7,30.14,NNE,12,0.0,2.0,65,0.00,,,0.06,Wunderground v.1.13,2013-07-02 18:21:00,
2013-07-02 14:26:00,79.2,66.9,30.14,South,183,0.0,2.0,66,0.00,,,0.06,Wunderground v.1.13,2013-07-02 18:26:00,
2013-07-02 14:31:00,79.0,66.2,30.14,SE,138,0.0,1.0,65,0.00,,,0.06,Wunderground v.1.13,2013-07-02 18:31:00,
2013-07-02 14:36:00,79.1,66.8,30.14,West,259,0.0,1.0,66,0.00,,,0.06,Wunderground v.1.13,2013-07-02 18:36:00,
2013-07-02 14:41:00,79.9,68.4,30.14,WNW,296,0.0,0.0,68,0.00,,,0.06,Wunderground v.1.13,2013-07-02 18:41:00,
2013-07-02 14:46:00,80.2,66.9,30.14,SW,228,0.0,1.0,64,0.00,,,0.06,Wunderground v.1.13,2013-07-02 18:46:00,
2013-07-02 14:51:00,80.3,68.3,30.14,South,187,0.0,0.0,67,0.00,,,0.06,Wunderground v.1.13,2013-07-02 18:51:00,
2013-07-02 14:57:00,80.5,67.2,30.14,South,185,0.0,1.0,64,0.00,,,0.06,Wunderground v.1.13,2013-07-02 18:57:00,
2013-07-02 15:02:00,80.2,66.9,30.14,South,182,0.0,2.0,64,0.00,,,0.06,Wunderground v.1.13,2013-07-02 19:02:00,
2013-07-02 15:07:00,80.2,66.9,30.14,South,180,0.0,0.0,64,0.00,,,0.06,Wunderground v.1.13,2013-07-02 19:07:00,
2013-07-02 15:12:00,80.0,65.8,30.14,South,180,0.0,1.0,62,0.00,,,0.06,Wunderground v.1.13,2013-07-02 19:12:00,
2013-07-02 15:17:00,79.9,68.4,30.14,South,180,0.0,1.0,68,0.00,,,0.06,Wunderground v.1.13,2013-07-02 19:17:00,
2013-07-02 15:22:00,80.7,70.0,30.13,SSW,209,0.0,1.0,70,0.00,,,0.06,Wunderground v.1.13,2013-07-02 19:22:00,
2013-07-02 15:27:00,81.1,69.1,30.13,SSW,209,0.0,0.0,67,0.00,,,0.06,Wunderground v.1.13,2013-07-02 19:27:00,
2013-07-02 15:32:00,81.7,70.5,30.14,SSW,200,0.0,0.0,69,0.00,,,0.06,Wunderground v.1.13,2013-07-02 19:32:00,
2013-07-02 15:37:00,81.8,67.5,30.13,South,173,0.0,3.0,62,0.00,,,0.06,Wunderground v.1.13,2013-07-02 19:37:00,
2013-07-02 15:42:00,81.8,70.2,30.13,ESE,119,0.0,1.0,68,0.00,,,0.06,Wunderground v.1.13,2013-07-02 19:42:00,
2013-07-02 15:47:00,81.6,67.8,30.13,SSW,196,0.0,4.0,63,0.00,,,0.06,Wunderground v.1.13,2013-07-02 19:47:00,
2013-07-02 15:52:00,80.8,67.9,30.13,South,184,0.0,0.0,65,0.00,,,0.06,Wunderground v.1.13,2013-07-02 19:52:00,
2013-07-02 15:57:00,80.3,67.0,30.14,WNW,283,0.0,0.0,64,0.00,,,0.06,Wunderground v.1.13,2013-07-02 19:57:00,
2013-07-02 16:02:00,79.4,67.5,30.14,WSW,254,0.0,0.0,67,0.00,,,0.06,Wunderground v.1.13,2013-07-02 20:02:00,
2013-07-02 16:07:00,78.9,66.6,30.14,WSW,240,0.0,1.0,66,0.00,,,0.06,Wunderground v.1.13,2013-07-02 20:07:00,
2013-07-02 16:12:00,78.6,67.2,30.14,SSW,207,0.0,1.0,68,0.00,,,0.06,Wunderground v.1.13,2013-07-02 20:12:00,
2013-07-02 16:17:00,79.0,66.7,30.14,South,189,0.0,2.0,66,0.00,,,0.06,Wunderground v.1.13,2013-07-02 20:17:00,
2013-07-02 16:22:00,79.2,67.3,30.14,South,189,0.0,1.0,67,0.00,,,0.06,Wunderground v.1.13,2013-07-02 20:22:00,
2013-07-02 16:27:00,79.9,69.7,30.13,South,189,0.0,0.0,71,0.00,,,0.06,Wunderground v.1.13,2013-07-02 20:27:00,
2013-07-02 16:32:00,80.8,69.7,30.13,South,190,0.0,1.0,69,0.00,,,0.06,Wunderground v.1.13,2013-07-02 20:32:00,
2013-07-02 16:37:00,81.6,68.7,30.14,NW,313,0.0,1.0,65,0.00,,,0.06,Wunderground v.1.13,2013-07-02 20:37:00,
2013-07-02 16:42:00,81.4,68.1,30.13,South,190,0.0,0.0,64,0.00,,,0.06,Wunderground v.1.13,2013-07-02 20:42:00,
2013-07-02 16:47:00,80.5,68.1,30.13,South,190,0.0,0.0,66,0.00,,,0.06,Wunderground v.1.13,2013-07-02 20:47:00,
2013-07-02 16:52:00,80.5,69.0,30.13,South,190,0.0,1.0,68,0.00,,,0.06,Wunderground v.1.13,2013-07-02 20:52:00,
2013-07-02 16:57:00,80.5,67.6,30.13,South,190,0.0,0.0,65,0.00,,,0.06,Wunderground v.1.13,2013-07-02 20:57:00,
2013-07-02 17:02:00,80.4,68.9,30.13,SSW,194,3.0,3.0,68,0.00,,,0.06,Wunderground v.1.13,2013-07-02 21:02:00,
2013-07-02 17:07:00,80.3,68.3,30.13,South,186,0.0,1.0,67,0.00,,,0.06,Wunderground v.1.13,2013-07-02 21:07:00,
2013-07-02 17:12:00,80.7,70.0,30.14,South,186,0.0,0.0,70,0.00,,,0.06,Wunderground v.1.13,2013-07-02 21:12:00,
2013-07-02 17:17:00,80.9,68.5,30.14,SSE,166,0.0,1.0,66,0.00,,,0.06,Wunderground v.1.13,2013-07-02 21:17:00,
2013-07-02 17:22:00,80.9,67.6,30.14,SW,224,2.0,3.0,64,0.00,,,0.06,Wunderground v.1.13,2013-07-02 21:22:00,
2013-07-02 17:27:00,80.5,66.7,30.13,SW,214,0.0,2.0,63,0.00,,,0.06,Wunderground v.1.13,2013-07-02 21:27:00,
2013-07-02 17:32:00,80.2,67.8,30.14,South,169,0.0,1.0,66,0.00,,,0.06,Wunderground v.1.13,2013-07-02 21:32:00,
2013-07-02 17:37:00,80.1,68.2,30.14,NW,315,0.0,4.0,67,0.00,,,0.06,Wunderground v.1.13,2013-07-02 21:37:00,
2013-07-02 17:42:00,79.6,69.0,30.13,NW,315,0.0,0.0,70,0.00,,,0.06,Wunderground v.1.13,2013-07-02 21:42:00,
2013-07-02 17:47:00,79.1,66.8,30.13,WNW,298,0.0,1.0,66,0.00,,,0.06,Wunderground v.1.13,2013-07-02 21:47:00,
2013-07-02 17:52:00,78.7,67.2,30.13,WNW,295,0.0,0.0,68,0.00,,,0.06,Wunderground v.1.13,2013-07-02 21:52:00,
2013-07-02 17:57:00,78.1,67.5,30.14,WNW,295,0.0,0.0,70,0.00,,,0.06,Wunderground v.1.13,2013-07-02 21:57:00,
2013-07-02 18:03:00,77.5,67.8,30.14,WNW,284,0.0,1.0,72,0.00,,,0.06,Wunderground v.1.13,2013-07-02 22:03:00,
2013-07-02 18:08:00,76.8,67.1,30.14,SSW,194,0.0,2.0,72,0.00,,,0.06,Wunderground v.1.13,2013-07-02 22:08:00,
2013-07-02 18:13:00,76.2,67.3,30.14,SSW,194,0.0,0.0,74,0.00,,,0.06,Wunderground v.1.13,2013-07-02 22:13:00,
2013-07-02 18:18:00,75.7,67.2,30.15,SSW,194,0.0,1.0,75,0.00,,,0.06,Wunderground v.1.13,2013-07-02 22:18:00,
2013-07-02 18:23:00,75.1,66.6,30.15,South,171,0.0,3.0,75,0.00,,,0.06,Wunderground v.1.13,2013-07-02 22:23:00,
2013-07-02 18:28:00,74.6,66.9,30.15,South,173,0.0,0.0,77,0.00,,,0.06,Wunderground v.1.13,2013-07-02 22:28:00,
2013-07-02 18:33:00,74.1,66.4,30.15,South,173,0.0,1.0,77,0.00,,,0.06,Wunderground v.1.13,2013-07-02 22:33:00,
2013-07-02 18:38:00,73.5,66.6,30.15,South,171,0.0,1.0,79,0.00,,,0.06,Wunderground v.1.13,2013-07-02 22:38:00,
2013-07-02 18:43:00,72.8,66.6,30.15,West,268,2.0,2.0,81,0.00,,,0.06,Wunderground v.1.13,2013-07-02 22:43:00,
2013-07-02 18:48:00,72.4,66.9,30.16,West,259,0.0,0.0,83,0.00,,,0.06,Wunderground v.1.13,2013-07-02 22:48:00,
2013-07-02 18:53:00,71.9,66.5,30.16,West,259,0.0,0.0,83,0.00,,,0.06,Wunderground v.1.13,2013-07-02 22:53:00,
2013-07-02 18:58:00,71.9,66.8,30.16,West,259,0.0,0.0,84,0.00,,,0.06,Wunderground v.1.13,2013-07-02 22:58:00,
2013-07-02 19:03:00,72.4,67.6,30.15,West,259,0.0,0.0,85,0.00,,,0.06,Wunderground v.1.13,2013-07-02 23:03:00,
2013-07-02 19:08:00,72.8,67.3,30.15,SSW,196,0.0,2.0,83,0.00,,,0.06,Wunderground v.1.13,2013-07-02 23:08:00,
2013-07-02 19:13:00,72.8,67.3,30.15,South,178,0.0,0.0,83,0.00,,,0.06,Wunderground v.1.13,2013-07-02 23:13:00,
2013-07-02 19:18:00,72.7,67.2,30.15,South,180,0.0,2.0,83,0.00,,,0.06,Wunderground v.1.13,2013-07-02 23:18:00,
2013-07-02 19:23:00,72.8,67.3,30.15,South,180,0.0,2.0,83,0.00,,,0.06,Wunderground v.1.13,2013-07-02 23:23:00,
2013-07-02 19:28:00,73.0,67.9,30.15,South,177,0.0,2.0,84,0.00,,,0.06,Wunderground v.1.13,2013-07-02 23:28:00,
2013-07-02 19:29:00,73.1,68.0,30.15,South,177,0.0,2.0,84,0.00,,,0.06,Wunderground v.1.13,2013-07-02 23:29:00,
2013-07-02 19:34:00,73.2,67.7,30.15,South,177,0.0,1.0,83,0.00,,,0.06,Wunderground v.1.13,2013-07-02 23:34:00,
2013-07-02 19:39:00,73.4,67.9,30.16,South,177,0.0,1.0,83,0.00,,,0.06,Wunderground v.1.13,2013-07-02 23:39:00,
2013-07-02 19:44:00,73.5,68.0,30.16,South,177,0.0,0.0,83,0.00,,,0.06,Wunderground v.1.13,2013-07-02 23:44:00,
2013-07-02 19:49:00,73.6,68.1,30.16,South,177,0.0,1.0,83,0.00,,,0.06,Wunderground v.1.13,2013-07-02 23:49:00,
2013-07-02 19:54:00,73.4,67.9,30.16,South,177,0.0,2.0,83,0.00,,,0.06,Wunderground v.1.13,2013-07-02 23:54:00,
2013-07-02 19:59:00,73.3,68.2,30.16,South,177,0.0,1.0,84,0.00,,,0.06,Wunderground v.1.13,2013-07-02 23:59:00,
2013-07-02 20:01:00,73.2,68.1,30.16,South,177,0.0,0.0,84,0.00,,,0.06,Wunderground v.1.13,2013-07-03 00:01:00,
2013-07-02 20:06:00,73.1,67.6,30.16,South,177,0.0,0.0,83,0.00,,,0.06,Wunderground v.1.13,2013-07-03 00:06:00,
2013-07-02 20:11:00,73.0,67.2,30.17,South,177,0.0,0.0,82,0.00,,,0.06,Wunderground v.1.13,2013-07-03 00:11:00,
2013-07-02 20:16:00,72.9,67.1,30.17,South,177,0.0,0.0,82,0.00,,,0.06,Wunderground v.1.13,2013-07-03 00:16:00,
2013-07-02 20:21:00,72.9,67.1,30.17,South,177,0.0,0.0,82,0.00,,,0.06,Wunderground v.1.13,2013-07-03 00:21:00,
2013-07-02 20:24:00,72.9,67.4,30.17,South,177,0.0,0.0,83,0.00,,,0.06,Wunderground v.1.13,2013-07-03 00:24:00,
2013-07-02 20:28:00,72.7,66.9,30.18,South,177,0.0,0.0,82,0.00,,,0.06,Wunderground v.1.13,2013-07-03 00:28:00,
2013-07-02 20:33:00,72.5,67.0,30.18,South,177,0.0,0.0,83,0.00,,,0.06,Wunderground v.1.13,2013-07-03 00:33:00,
2013-07-02 20:38:00,72.4,66.9,30.18,South,177,0.0,0.0,83,0.00,,,0.06,Wunderground v.1.13,2013-07-03 00:38:00,
2013-07-02 20:43:00,72.2,67.1,30.18,South,177,0.0,0.0,84,0.00,,,0.06,Wunderground v.1.13,2013-07-03 00:43:00,
2013-07-02 20:48:00,72.0,66.6,30.18,South,177,0.0,0.0,83,0.00,,,0.06,Wunderground v.1.13,2013-07-03 00:48:00,
2013-07-02 20:53:00,71.7,66.3,30.18,South,177,0.0,0.0,83,0.00,,,0.06,Wunderground v.1.13,2013-07-03 00:53:00,
2013-07-02 20:58:00,71.5,66.1,30.18,South,177,0.0,0.0,83,0.00,,,0.06,Wunderground v.1.13,2013-07-03 00:58:00,
2013-07-02 21:00:00,71.4,66.0,30.18,South,177,0.0,0.0,83,0.00,,,0.06,Wunderground v.1.13,2013-07-03 01:00:00,
2013-07-02 21:03:00,71.3,66.2,30.18,South,177,0.0,0.0,84,0.00,,,0.06,Wunderground v.1.13,2013-07-03 01:03:00,
2013-07-02 21:08:00,71.2,65.8,30.18,South,177,0.0,0.0,83,0.00,,,0.06,Wunderground v.1.13,2013-07-03 01:08:00,
2013-07-02 21:09:00,71.1,65.7,30.18,South,177,0.0,0.0,83,0.00,,,0.06,Wunderground v.1.13,2013-07-03 01:09:00,
2013-07-02 21:14:00,71.0,65.9,30.18,South,177,0.0,0.0,84,0.00,,,0.06,Wunderground v.1.13,2013-07-03 01:14:00,
2013-07-02 21:19:00,70.8,65.7,30.18,South,177,0.0,0.0,84,0.00,,,0.06,Wunderground v.1.13,2013-07-03 01:19:00,
2013-07-02 21:24:00,70.6,65.9,30.18,South,177,0.0,0.0,85,0.00,,,0.06,Wunderground v.1.13,2013-07-03 01:24:00,
2013-07-02 21:26:00,70.6,65.9,30.18,South,177,0.0,0.0,85,0.00,,,0.06,Wunderground v.1.13,2013-07-03 01:26:00,
2013-07-02 21:31:00,70.4,66.0,30.18,South,177,0.0,0.0,86,0.00,,,0.06,Wunderground v.1.13,2013-07-03 01:31:00,
2013-07-02 21:36:00,70.2,65.5,30.18,South,177,0.0,0.0,85,0.00,,,0.06,Wunderground v.1.13,2013-07-03 01:36:00,
2013-07-02 21:41:00,70.0,65.3,30.18,South,177,0.0,0.0,85,0.00,,,0.06,Wunderground v.1.13,2013-07-03 01:41:00,
2013-07-02 21:46:00,69.8,65.1,30.18,South,177,0.0,0.0,85,0.00,,,0.06,Wunderground v.1.13,2013-07-03 01:46:00,
2013-07-02 21:49:00,69.8,64.7,30.18,South,177,0.0,0.0,84,0.00,,,0.06,Wunderground v.1.13,2013-07-03 01:49:00,
2013-07-02 21:50:00,69.9,64.8,30.18,South,177,0.0,0.0,84,0.00,,,0.06,Wunderground v.1.13,2013-07-03 01:50:00,
2013-07-02 21:55:00,70.0,64.9,30.18,South,177,0.0,0.0,84,0.00,,,0.06,Wunderground v.1.13,2013-07-03 01:55:00,
2013-07-02 22:00:00,70.0,65.3,30.18,South,177,0.0,0.0,85,0.00,,,0.06,Wunderground v.1.13,2013-07-03 02:00:00,
2013-07-02 22:06:00,70.0,65.3,30.19,South,177,0.0,0.0,85,0.00,,,0.06,Wunderground v.1.13,2013-07-03 02:06:00,
2013-07-02 22:11:00,69.9,65.2,30.19,South,177,0.0,0.0,85,0.00,,,0.06,Wunderground v.1.13,2013-07-03 02:11:00,
2013-07-02 22:16:00,69.9,65.2,30.19,South,177,0.0,0.0,85,0.00,,,0.06,Wunderground v.1.13,2013-07-03 02:16:00,
2013-07-02 22:22:00,69.9,65.5,30.19,South,177,0.0,0.0,86,0.00,,,0.06,Wunderground v.1.13,2013-07-03 02:22:00,
2013-07-02 22:27:00,69.8,65.4,30.20,South,177,0.0,0.0,86,0.00,,,0.06,Wunderground v.1.13,2013-07-03 02:27:00,
2013-07-02 22:32:00,69.7,65.3,30.20,South,177,0.0,0.0,86,0.00,,,0.06,Wunderground v.1.13,2013-07-03 02:32:00,
2013-07-02 22:34:00,69.6,65.2,30.20,South,177,0.0,0.0,86,0.00,,,0.06,Wunderground v.1.13,2013-07-03 02:34:00,
2013-07-02 22:39:00,69.6,65.6,30.20,South,177,0.0,0.0,87,0.00,,,0.06,Wunderground v.1.13,2013-07-03 02:39:00,
2013-07-02 22:44:00,69.5,65.8,30.21,South,177,0.0,0.0,88,0.00,,,0.06,Wunderground v.1.13,2013-07-03 02:44:00,
2013-07-02 22:47:00,69.5,65.8,30.21,South,177,0.0,1.0,88,0.00,,,0.06,Wunderground v.1.13,2013-07-03 02:47:00,
2013-07-02 22:53:00,69.7,66.3,30.21,South,177,0.0,1.0,89,0.00,,,0.06,Wunderground v.1.13,2013-07-03 02:53:00,
2013-07-02 22:58:00,69.8,66.7,30.21,NW,319,0.0,0.0,90,0.00,,,0.06,Wunderground v.1.13,2013-07-03 02:58:00,
2013-07-02 23:02:00,69.9,67.2,30.21,NW,317,0.0,1.0,91,0.00,,,0.06,Wunderground v.1.13,2013-07-03 03:02:00,
2013-07-02 23:08:00,69.7,67.0,30.21,NW,317,0.0,0.0,91,0.00,,,0.06,Wunderground v.1.13,2013-07-03 03:08:00,
2013-07-02 23:13:00,69.5,67.1,30.21,NW,317,0.0,0.0,92,0.00,,,0.06,Wunderground v.1.13,2013-07-03 03:13:00,
2013-07-02 23:18:00,69.4,67.3,30.21,NW,317,0.0,0.0,93,0.00,,,0.06,Wunderground v.1.13,2013-07-03 03:18:00,
2013-07-02 23:20:00,69.4,67.3,30.21,NW,317,0.0,0.0,93,0.00,,,0.06,Wunderground v.1.13,2013-07-03 03:20:00,
2013-07-02 23:25:00,69.3,67.2,30.21,NW,317,0.0,0.0,93,0.00,,,0.06,Wunderground v.1.13,2013-07-03 03:25:00,
2013-07-02 23:30:00,69.2,67.1,30.21,NW,317,0.0,0.0,93,0.00,,,0.06,Wunderground v.1.13,2013-07-03 03:30:00,
2013-07-02 23:35:00,69.1,67.3,30.21,NW,317,0.0,0.0,94,0.00,,,0.06,Wunderground v.1.13,2013-07-03 03:35:00,
2013-07-02 23:39:00,69.1,67.3,30.21,NW,317,0.0,0.0,94,0.00,,,0.06,Wunderground v.1.13,2013-07-03 03:39:00,
2013-07-02 23:45:00,68.9,67.1,30.21,NW,317,0.0,0.0,94,0.00,,,0.06,Wunderground v.1.13,2013-07-03 03:45:00,
2013-07-02 23:49:00,68.8,67.0,30.22,NW,317,0.0,0.0,94,0.00,,,0.06,Wunderground v.1.13,2013-07-03 03:49:00,
2013-07-02 23:54:00,68.7,66.9,30.22,NW,317,0.0,1.0,94,0.00,,,0.06,Wunderground v.1.13,2013-07-03 03:54:00,
2013-07-02 23:59:00,68.7,66.9,30.21,SSW,192,0.0,2.0,94,0.00,,,0.06,Wunderground v.1.13,2013-07-03 03:59:00,